Location: Colonia Mina de C?rbuni
(46.1667°N, 22.7167°E)
Time: 15:13:24
(UTC+00:00)

Vanguard 1 Rocket - Pass Details

Date: 19 April 2024
Orbit: 650 x 4220 km, 34.3° (Epoch: 22 May)

Event Time Altitude Azimuth Distance (km) Brightness Sun altitude
Rises 17:45:55 0° 233° (SW) 3,171 10.7 -4.7°
Reaches altitude 10° 17:48:13 10° 220° (SW) 2,433 9.9 -5.1°
Maximum altitude 17:53:01 29° 161° (SSE) 1,888 8.7 -5.8°
Drops below altitude 10° 18:00:29 10° 106° (ESE) 3,880 9.9 -7.0°
Enters shadow 18:01:46 - 103° (ESE) 4,312 10.2 -7.2°
